Home > Weather > Alice Springs > Past weeks

Flag for Australia Past Weather in Alice Springs, Northern Territory, Australia — Yesterday and Last 2 Weeks

Now
73 °F

Clear.


Feels Like: 75 °F
Forecast: 60 / 83 °F
Wind: 9 mph from Northwest

Location: Alice Springs Aerodrome

Current Time: Aug 28, 2016 at 8:17:58 PM

Latest Report: Aug 28, 2016 at 7:30 PM


Visibility: N/A

Pressure: 29.95 "Hg (28.01 "Hg at 581m altitude)

Humidity: 20%

Dew Point: 30 °F

Location of Alice SpringsLocation

Past Weather in Alice Springs — Graph

°F

Alice Springs Temperature Yesterday

Maximum temperature yesterday: 75 °F (at 4:30 PM)
Minimum temperature yesterday: 37 °F (at 4:30 AM)
Average temperature yesterday: 59 °F

High & Low Weather Summary for the Past Weeks

 TemperatureHumidityPressure
High84 °F (Aug 28, 3:30 PM)100% (Aug 22, 12:30 AM)30.33 "Hg (Aug 22, 12:30 AM)
Low36 °F (Aug 25, 3:00 AM)9% (Aug 15, 3:30 PM)29.77 "Hg (Aug 22, 3:00 PM)
Average58 °F44%30.07 "Hg
* Reported Aug 13 7:30 PM — Aug 28 7:30 PM, Alice Springs, Weather by CustomWeather, © 2016

Note: Actual official high and low records may vary slightly from our data, if they occured in-between our weather recording intervals... More about our weather records

Advertising

Alice Springs Weather History for the Previous 24 Hours

Scroll right to see more
 ConditionsComfort  
Time TempWeatherWind HumidityBarometerVisibility
7:30 PM
Sun, Aug 28
73 °FClear.9 mph20%29.95 "HgN/A
6:30 PM77 °FClear.12 mph18%29.92 "HgN/A
6:00 PM81 °FClear.13 mph16%29.89 "HgN/A
5:30 PM82 °FScattered clouds.16 mph15%29.89 "HgN/A
4:30 PM84 °FScattered clouds.14 mph14%29.89 "HgN/A
3:30 PM84 °FSunny.15 mph12%29.89 "HgN/A
2:30 PM81 °FSunny.16 mph14%29.92 "HgN/A
1:30 PM81 °FSunny.16 mph13%29.98 "HgN/A
1:00 PM79 °FSunny.14 mph13%29.98 "HgN/A
12:30 PM79 °FSunny.15 mph13%30.01 "HgN/A
11:30 AM73 °FSunny.20 mph17%30.04 "HgN/A
11:00 AM72 °FSunny.20 mph19%30.07 "HgN/A
10:30 AM72 °FSunny.17 mph19%30.07 "HgN/A
10:00 AM72 °FSunny.17 mph20%30.09 "HgN/A
9:30 AM68 °FSunny.15 mph23%30.09 "HgN/A
9:00 AM64 °FSunny.17 mph26%30.09 "HgN/A
8:30 AM63 °FSunny.16 mph27%30.09 "HgN/A
7:30 AM59 °FSunny.16 mph31%30.07 "HgN/A
6:30 AM57 °FSunny.6 mph33%30.07 "HgN/A
6:00 AM57 °FClear.6 mph33%30.07 "HgN/A
5:30 AM57 °FClear.7 mph36%30.04 "HgN/A
4:30 AM57 °FClear.9 mph36%30.04 "HgN/A
3:30 AM57 °FClear.2 mph36%30.04 "HgN/A
3:00 AM59 °FClear.3 mph34%30.04 "HgN/A
2:30 AM61 °FClear.7 mph29%30.04 "HgN/A
2:00 AM61 °FClear.10 mph31%30.04 "HgN/A
1:30 AM61 °FClear.10 mph27%30.04 "HgN/A
1:00 AM61 °FClear.7 mph29%30.07 "HgN/A
12:30 AM61 °FClear.7 mph31%30.07 "HgN/A
11:30 PM
Sat, Aug 27
61 °FClear.8 mph29%30.07 "HgN/A
11:00 PM61 °FClear.7 mph29%30.07 "HgN/A
10:30 PM63 °FClear.7 mph25%30.09 "HgN/A
10:00 PM61 °FClear.9 mph29%30.09 "HgN/A
9:30 PM61 °FClear.8 mph29%30.09 "HgN/A
9:00 PM63 °FClear.6 mph27%30.09 "HgN/A
8:30 PM59 °FClear.7 mph31%30.09 "HgN/A
8:00 PM61 °FClear.6 mph29%30.09 "HgN/A
Weather by CustomWeather, © 2016

See weather overviewHow to use our weather pages